Regional Weather Roundup
Issued by NWS

Home | Current Version | Previous Version | Graphics & Text | Print | Product List | Glossary On
Versions: 1 2 3 4 5 6 7 8 9 10 11 12 13 14 15 16 17 18 19 20 21 22 23 24 25 26 27 28 29 30 31 32 33 34 35 36 37 38 39 40 41 42 43 44 45 46 47 48 49 50
000
ASUS43 KOAX 210410
RWRNE

WEATHER ROUNDUP FOR NEBRASKA
NATIONAL WEATHER SERVICE OMAHA NE
1000 PM CST SAT JAN 20 2018

NOTES: SATELLITE DATA IS BEING USED TO AUGMENT CLOUD COVER ABOVE
       12000 FEET.
       "FAIR" INDICATES FEW OR NO CLOUDS BELOW 12,000 FEET WITH NO
       SIGNIFICANT WEATHER AND/OR OBSTRUCTIONS TO VISIBILITY.


NEZ001>004-019>022-054>056-210500-
NEBRASKA PANHANDLE

CITY           SKY/WX    TMP DP  RH WIND       PRES   REMARKS
SCOTTSBLUFF    CLOUDY    33  31  92 E8        29.88F WCI  26
ALLIANCE       LGT SNOW  31  31 100 NE17      29.87F FOG     WCI  19
CHADRON        LGT SNOW  31  30  96 NE7       29.94S FOG     WCI  24
GORDON         CLOUDY    32  31  96 NE9       29.91F WCI  24
KIMBALL        CLOUDY    29  28  95 E12G17    29.83F WCI  20
SIDNEY         CLOUDY    31  28  89 NE8       29.85F WCI  23
$$

NEZ057>060-069>072-079>082-210500-
SOUTHWEST NEBRASKA

CITY           SKY/WX    TMP DP  RH WIND       PRES   REMARKS
NORTH PLATTE   CLOUDY    33  29  85 N15       29.84S WCI  23
IMPERIAL       CLOUDY    30  28  92 N10       29.84R WCI  21
LEXINGTON      CLOUDY    35  30  82 NE13      29.83S WCI  26
MCCOOK         CLOUDY    33  29  85 N13       29.81R WCI  24
OGALLALA       CLOUDY    34  31  89 NE13      29.86S WCI  25
$$

NEZ005>010-023>029-035>040-094-210500-
NORTH CENTRAL NEBRASKA

CITY           SKY/WX    TMP DP  RH WIND       PRES   REMARKS
VALENTINE      CLOUDY    36  33  89 N12       29.92F WCI  28
AINSWORTH      CLOUDY    33  33 100 N8        29.91S WCI  26
BROKEN BOW     CLOUDY    35  28  75 N12       29.85S WCI  27
O`NEILL        CLOUDY    32  32  99 N7        29.90S WCI  26
ORD            CLOUDY    33  29  85 NE10      29.86S WCI  25
THEDFORD       CLOUDY    34  33  95 N3        29.89F
$$

NEZ041-046>049-061>064-073>077-083>087-210500-
SOUTH CENTRAL NEBRASKA

CITY           SKY/WX    TMP DP  RH WIND       PRES   REMARKS
GRAND ISLAND   CLOUDY    34  32  92 N8        29.84S WCI  27
AURORA         CLOUDY    34  32  90 N7        29.83S WCI  28
HASTINGS       CLOUDY    33  31  92 NE6       29.82S WCI  28
HEBRON         CLOUDY    40  38  93 E6        29.81F
HOLDREGE       CLOUDY    33  32  97 N10       29.81S WCI  24
KEARNEY        CLOUDY    32  29  88 N14       29.82F WCI  22
YORK           CLOUDY    36  36 100 N9        29.83F WCI  29
$$

NEZ011>018-030>034-042>045-210500-
NORTHEAST NEBRASKA

CITY           SKY/WX    TMP DP  RH WIND       PRES   REMARKS
NORFOLK        CLOUDY    35  28  75 N5        29.87S WCI  31
ALBION         CLOUDY    31  28  88 CALM      29.87S
BLAIR          CLOUDY    40  37  88 NE3       29.86S
COLUMBUS       CLOUDY    34  28  79 N3        29.86F
FREMONT        CLOUDY    34  29  81 CALM      29.87R
TEKAMAH        CLOUDY    32  26  78 N6        29.89R WCI  26
WAYNE          CLOUDY    32  31  96 CALM      29.89S
$$

NEZ050>053-065>068-078-088>093-210500-
SOUTHEAST NEBRASKA

CITY           SKY/WX    TMP DP  RH WIND       PRES   REMARKS
LINCOLN        CLOUDY    41  37  86 NE7       29.85F
OMAHA EPPLEY   CLOUDY    37  34  89 N6        29.87S WCI  32
BEATRICE       CLOUDY    43  41  94 E5        29.83S
FALLS CITY     CLOUDY    42  40  92 CALM      29.84S
NEBRASKA CITY  CLOUDY    41  41 100 CALM      29.85S FOG
PLATTSMOUTH    CLOUDY    40  39  97 NE3       29.85F FOG
$$

NEZ044-045-051>053-067-210500-
OMAHA AREA

CITY           SKY/WX    TMP DP  RH WIND       PRES   REMARKS
OMAHA EPPLEY   CLOUDY    37  34  89 N6        29.87S WCI  32
BLAIR          CLOUDY    40  37  88 NE3       29.86S
FREMONT        CLOUDY    34  29  81 CALM      29.87R
MILLARD        CLOUDY    42  38  88 CALM      29.86S
OFFUTT AFB     CLOUDY    39  36  90 NE5       29.85F
PLATTSMOUTH    CLOUDY    40  39  97 NE3       29.85F FOG
WAHOO          CLOUDY    38  31  74 N5        29.86R WCI  35
$$



USA.gov is the U.S. government's official web portal to all federal, state and local government web resources and services.